This is the latest recevied weather packets stored in our database for station/object W0JRT-6. If no packets are shown the sender has not sent any weather packets the latest 10 day(s).
| Time | Temp. | Humidity | Pressure | Rain* | Wind** | Luminosity | Snow |
|---|---|---|---|---|---|---|---|
| 1777501208 | 16.11° C | 49% | 1013.9 hPa | 0 mm | - | - | - |
| 1777500859 | 16.11° C | 50% | 1014 hPa | 0 mm | - | - | - |
| 1777500598 | 16.11° C | 50% | 1014 hPa | 0 mm | - | - | - |
| 1777498806 | 15.56° C | 54% | 1013.9 hPa | 0 mm | - | - | - |
| 1777498199 | 15.56° C | 52% | 1014 hPa | 0 mm | - | - | - |
| 1777497657 | 15.56° C | 50% | 1014.1 hPa | 0 mm | - | - | - |
| 1777497610 | 15.56° C | 50% | 1014.1 hPa | 0 mm | - | - | - |
| 1777497007 | 15.56° C | 52% | 1014.2 hPa | 0 mm | - | - | - |
| 1777495803 | 15.56° C | 54% | 1014.6 hPa | 0 mm | - | - | - |
| 1777495209 | 15° C | 52% | 1014.7 hPa | 0 mm | - | - | - |
| 1777494605 | 15.56° C | 51% | 1014.9 hPa | 0 mm | - | - | - |
| 1777494008 | 15° C | 53% | 1014.8 hPa | 0 mm | - | - | - |
| 1777492807 | 15.56° C | 49% | 1015.1 hPa | 0 mm | - | - | - |
| 1777492212 | 15.56° C | 54% | 1015.2 hPa | 0 mm | - | - | - |
| 1777491873 | 15.56° C | 56% | 1015.2 hPa | 0 mm | - | - | - |
| 1777491598 | 15.56° C | 56% | 1015.2 hPa | 0 mm | - | - | - |
| 1777491080 | 15.56° C | 53% | 1015.2 hPa | 0 mm | - | - | - |
| 1777491007 | 15.56° C | 53% | 1015.2 hPa | 0 mm | - | - | - |
| 1777490402 | 15.56° C | 56% | 1015.2 hPa | 0 mm | - | - | - |
| 1777489203 | 15° C | 52% | 1015.5 hPa | 0 mm | - | - | - |
| 1777488607 | 15.56° C | 56% | 1015.6 hPa | 0 mm | - | - | - |
| 1777488011 | 15° C | 55% | 1015.7 hPa | 0 mm | - | - | - |
| 1777486204 | 15.56° C | 50% | 1015.8 hPa | 0 mm | - | - | - |
| 1777485608 | 15.56° C | 56% | 1016 hPa | 0 mm | - | - | - |
| 1777485001 | 15° C | 58% | 1016.2 hPa | 0 mm | - | - | - |
* Rain since midnight (hover to see other rain measurements)
** Current wind speed in m/s (hover to see current wind gust speed)